Weather History for St. Petersburg Airport, FL

Change the Weather History Date:

Friday, February 8, 2013

  Actual Average Record
Temperature  
Mean Temperature 68 °F -  
Max Temperature 75 °F 68 °F 83 °F (1957)
Min Temperature 60 °F 52 °F 39 °F (1951)
Cooling Degree Days 2    
Growing Degree Days 18 (Base 50)    
Moisture  
Dew Point 60 °F    
Average Humidity 82    
Maximum Humidity 94    
Minimum Humidity 57    
Precipitation  
Precipitation 0.00 in - - ()
Sea Level Pressure  
Sea Level Pressure 30.01 in    
Wind  
Wind Speed 10 mph (NW)    
Max Wind Speed 16 mph    
Max Gust Speed -    
Visibility 10 miles    
Events      
Averages and records for this station are not official NWS values.
T = Trace of Precipitation, MM = Missing Value Source: NWS Daily Summary

Daily Weather History Graph

Daily Weather History Graph

Search for Another Location

Airport:

Trip Planner

Search our weather history database for the weather conditions in past years. The results will help you decide how hot, cold, wet, or windy it might be!

Date:

Astronomy

Feb. 08, 2013 Rise Set
Actual Time 7:13 AM EST 6:16 PM EST
Civil Twilight 6:49 AM EST 6:41 PM EST
Nautical Twilight 6:21 AM EST 7:08 PM EST
Astronomical Twilight 5:53 AM EST 7:36 PM EST
Moon 5:36 AM EST (2/8) 4:51 PM EST (2/8)
Length of Visible Light 11h 52m
Length of Day
11h 03m
Waning Crescent, 3% of the Moon is Illuminated
Feb 8
Waning Crescent
Feb 10
New
Feb 17
First Quarter
Feb 25
Full
Mar 4
Last Quarter

Hourly Weather History & Observations

Time (EST) Temp. Dew Point Humidity Pressure Visibility Wind Dir Wind Speed Gust Speed Precip Events Conditions
12:53 AM 69.8 °F 64.4 °F 83% 29.92 in 10.0 mi SW 12.7 mph - N/A   Clear
1:53 AM 69.1 °F 64.0 °F 84% 29.93 in 10.0 mi WSW 13.8 mph - N/A   Clear
2:53 AM 68.0 °F 64.9 °F 90% 29.92 in 10.0 mi WSW 11.5 mph - N/A   Clear
3:41 AM 69.8 °F 64.4 °F 83% 29.93 in 10.0 mi West 11.5 mph - N/A   Mostly Cloudy
3:53 AM 68.0 °F 64.9 °F 90% 29.93 in 10.0 mi West 9.2 mph - N/A   Mostly Cloudy
4:24 AM 68.0 °F 66.2 °F 94% 29.94 in 10.0 mi WNW 9.2 mph - N/A   Overcast
4:32 AM 68.0 °F 64.4 °F 88% 29.94 in 10.0 mi WNW 9.2 mph - N/A   Overcast
4:53 AM 66.9 °F 64.9 °F 93% 29.94 in 9.0 mi WNW 8.1 mph - N/A   Mostly Cloudy
5:32 AM 66.2 °F 62.6 °F 88% 29.95 in 10.0 mi WNW 6.9 mph - N/A   Scattered Clouds
5:53 AM 64.9 °F 63.0 °F 93% 29.96 in 10.0 mi NW 8.1 mph - N/A   Clear
5:58 AM 64.4 °F 62.6 °F 94% 29.96 in 10.0 mi NW 6.9 mph - N/A   Mostly Cloudy
6:53 AM 64.0 °F 61.0 °F 90% 29.99 in 10.0 mi NW 10.4 mph - N/A   Mostly Cloudy
7:53 AM 64.0 °F 60.1 °F 87% 30.01 in 10.0 mi NNW 10.4 mph - N/A   Mostly Cloudy
8:53 AM 64.9 °F 60.1 °F 84% 30.03 in 10.0 mi NNW 8.1 mph - N/A   Scattered Clouds
9:53 AM 66.9 °F 60.1 °F 79% 30.04 in 10.0 mi Variable 6.9 mph - N/A   Clear
10:53 AM 69.1 °F 59.0 °F 70% 30.05 in 10.0 mi NNW 4.6 mph - N/A   Clear
11:53 AM 71.6 °F 60.8 °F 69% 30.04 in 10.0 mi Variable 4.6 mph - N/A   Clear
12:53 PM 75.0 °F 59.0 °F 57% 30.03 in 10.0 mi NNW 13.8 mph - N/A   Clear
1:53 PM 75.0 °F 60.1 °F 60% 30.01 in 10.0 mi NNW 13.8 mph - N/A   Clear
2:53 PM 72.0 °F 60.1 °F 66% 30.02 in 10.0 mi NW 16.1 mph - N/A   Clear
3:53 PM 68.0 °F 60.1 °F 76% 30.01 in 10.0 mi NNW 12.7 mph - N/A   Scattered Clouds
4:53 PM 66.9 °F 59.0 °F 76% 30.02 in 10.0 mi NNW 15.0 mph - N/A   Clear
5:21 PM 64.4 °F 57.2 °F 77% 30.02 in 10.0 mi NNW 10.4 mph - N/A   Mostly Cloudy
5:53 PM 63.0 °F 57.0 °F 81% 30.03 in 10.0 mi NNW 12.7 mph - N/A   Scattered Clouds
6:09 PM 62.6 °F 57.2 °F 82% 30.03 in 10.0 mi NNW 11.5 mph - N/A   Mostly Cloudy
6:53 PM 63.0 °F 57.0 °F 81% 30.05 in 10.0 mi NNW 11.5 mph - N/A   Overcast
7:45 PM 60.8 °F 55.4 °F 82% 30.06 in 10.0 mi NNW 9.2 mph - N/A   Scattered Clouds
7:53 PM 61.0 °F 55.9 °F 83% 30.06 in 10.0 mi NNW 6.9 mph - N/A   Partly Cloudy
8:53 PM 60.1 °F 55.9 °F 86% 30.09 in 10.0 mi Calm Calm - N/A   Clear
9:53 PM 60.1 °F 57.0 °F 90% 30.09 in 10.0 mi NNW 5.8 mph - N/A   Clear
10:53 PM 61.0 °F 57.0 °F 87% 30.10 in 10.0 mi NNW 8.1 mph - N/A   Clear
11:53 PM 61.0 °F 57.0 °F 87% 30.10 in 10.0 mi North 4.6 mph - N/A   Clear